Regional Weather Roundup
Issued by NWS

Home | Current Version | Previous Version | Text Only | Print | Product List | Glossary On
Versions: 1 2 3 4 5 6 7 8 9 10 11 12 13 14 15 16 17 18 19 20 21 22 23 24 25 26 27 28 29 30 31 32 33 34 35 36 37 38 39 40 41 42 43 44 45 46 47 48 49 50
000
ASUS43 KLSX 010207
RWRMO

WEATHER SUMMARY FOR MISSOURI
NATIONAL WEATHER SERVICE SPRINGFIELD MO
900 PM CDT THU JUL 31 2014

NOTE: "FAIR" INDICATES FEW OR NO CLOUDS BELOW 12,000 FEET WITH NO
       SIGNIFICANT WEATHER AND/OR OBSTRUCTIONS TO VISIBILITY.
       CURRENT SKY AND/OR WEATHER CONDITIONS ARE NOT AVAILABLE FOR
       CHILLICOTHE AND FARMINGTON.

MOZ001>031-035>038-043-044-053-054-010300-
...NORTHERN AND WESTERN MISSOURI...

CITY           SKY/WX    TMP DP  RH WIND       PRES   REMARKS
KANSAS CTY INT CLOUDY    76  56  49 E6        30.05R
KANSAS C DTWN  MOCLDY    78  56  46 E5        30.03R
LEE`S SUMMIT   PTCLDY    75  59  57 SE5       30.05R
ST JOSEPH      MOCLDY    75  60  59 SE5       30.03F
CHILLICOTHE      N/A     70  61  73 CALM      30.05S
KIRKSVILLE     CLEAR     67  62  84 CALM      30.06S

$$
MOZ066>068-077>081-088>096-101>105-010300-
...SOUTHWEST MISSOURI...

CITY           SKY/WX    TMP DP  RH WIND       PRES   REMARKS
SPRINGFIELD    CLEAR     70  64  81 S6        30.06S
JOPLIN         CLEAR     72  67  84 S5        30.06R

$$
MOZ032>034-039>042-045>050-055>058-069>072-010300-
...CENTRAL MISSOURI...

CITY           SKY/WX    TMP DP  RH WIND       PRES   REMARKS
COLUMBIA       CLEAR     73  58  59 N6        30.05S
JEFFERSON CITY CLEAR     77  56  48 N5        30.03R
ROLLA          MOCLDY    74  55  51 E5        30.04S
SEDALIA        PTCLDY    72  60  66 NE5       30.06R
OSAGE BEACH      N/A     72  57  60 NE3       30.04S

$$
MOZ051-052-059>065-010300-
...EAST CENTRAL MISSOURI...

CITY           SKY/WX    TMP DP  RH WIND       PRES   REMARKS
ST LOUIS INTL  PTCLDY    79  60  52 E5        30.05S
SPIRIT OF STL  MOCLDY    75  59  57 E5        30.03S
ST CHARLES     CLEAR     72  66  81 CALM      30.04R

$$
MOZ072>076-082>087-097>100-106>115-010300-
...SOUTH CENTRAL AND SOUTHEAST MISSOURI...

CITY           SKY/WX    TMP DP  RH WIND       PRES   REMARKS
CAPE GIRARDEAU PTCLDY    69  64  84 CALM      30.06R
FARMINGTON     PTCLDY    72  64  78 CALM      30.09R
POPLAR BLUFF   PTCLDY    68  64  87 CALM      30.06R
WEST PLAINS    PTCLDY    67  63  87 CALM      30.09R

$$


USA.gov is the U.S. government's official web portal to all federal, state and local government web resources and services.